This is the latest recevied weather packets stored in our database for station/object WP3OF-3. If no packets are shown the sender has not sent any weather packets the latest 10 day(s).
| Time | Temp. | Humidity | Pressure | Rain* | Wind** | Luminosity | Snow |
|---|---|---|---|---|---|---|---|
| 1778179770 | 29.44° C | 70% | 1018.3 hPa | 0 mm | - | - | - |
| 1778179468 | 29.44° C | 69% | 1018.2 hPa | 0 mm | - | - | - |
| 1778179166 | 29.44° C | 70% | 1018.2 hPa | 0 mm | - | - | - |
| 1778178862 | 29.44° C | 70% | 1018.4 hPa | 0 mm | - | - | - |
| 1778178560 | 30° C | 68% | 1018.6 hPa | 0 mm | - | - | - |
| 1778178255 | 29.44° C | 71% | 1018.7 hPa | 0 mm | - | - | - |
| 1778177952 | 30° C | 68% | 1018.8 hPa | 0 mm | - | - | - |
| 1778177648 | 29.44° C | 69% | 1018.6 hPa | 0 mm | - | - | - |
| 1778177345 | 29.44° C | 69% | 1018.6 hPa | 0 mm | - | - | - |
| 1778177041 | 29.44° C | 70% | 1018.6 hPa | 0 mm | - | - | - |
| 1778176737 | 29.44° C | 70% | 1018.7 hPa | 0 mm | - | - | - |
| 1778176434 | 28.89° C | 71% | 1018.9 hPa | 0 mm | - | - | - |
| 1778176132 | 29.44° C | 71% | 1019 hPa | 0 mm | - | - | - |
| 1778175829 | 29.44° C | 72% | 1018.9 hPa | 0 mm | - | - | - |
| 1778175527 | 29.44° C | 71% | 1019.2 hPa | 0 mm | - | - | - |
| 1778175224 | 30° C | 71% | 1018.9 hPa | 0 mm | - | - | - |
| 1778174919 | 29.44° C | 70% | 1019 hPa | 0 mm | - | - | - |
| 1778174616 | 29.44° C | 71% | 1019.2 hPa | 0 mm | - | - | - |
| 1778174312 | 29.44° C | 70% | 1019.1 hPa | 0 mm | - | - | - |
| 1778174009 | 29.44° C | 71% | 1019.3 hPa | 0 mm | - | - | - |
| 1778173706 | 29.44° C | 70% | 1019.3 hPa | 0 mm | - | - | - |
| 1778173403 | 30° C | 71% | 1019.3 hPa | 0 mm | - | - | - |
| 1778173099 | 30° C | 70% | 1019.4 hPa | 0 mm | - | - | - |
| 1778172795 | 28.89° C | 72% | 1019.7 hPa | 0 mm | - | - | - |
| 1778172491 | 30° C | 72% | 1019.8 hPa | 0 mm | - | - | - |
* Rain latest hour (hover to see other rain measurements)
** Current wind speed in m/s (hover to see current wind gust speed)